Location: Kershaw
(34.5481°N, 80.5823°W)
Time: 16:39:54
(UTC+00:00)

Courier 1B Rocket - Pass Details

Date: 02 October 2022
Orbit: 920 x 1202 km, 28.2° (Epoch: 08 December)

Event Time Altitude Azimuth Distance (km) Brightness Sun altitude
Rises 06:27:32 0° 262° (W) 3,547 - -54.4°
Reaches altitude 10° 06:31:17 10° 240° (WSW) 2,612 - -54.0°
Maximum altitude 06:34:43 15° 206° (SSW) 2,273 - -53.5°
Drops below altitude 10° 06:38:13 10° 172° (S) 2,660 - -53.1°
Sets 06:42:07 0° 151° (SSE) 3,651 - -52.6°
